Regional Weather Roundup
Issued by NWS

Home | Current Version | Previous Version | Graphics & Text | Print | Product List | Glossary On
Versions: 1 2 3 4 5 6 7 8 9 10 11 12 13 14 15 16 17 18 19 20 21 22 23 24 25 26 27
000
ASUS45 KCYS 221610
RWRWY

WYOMING REGIONAL WEATHER ROUNDUP
NATIONAL WEATHER SERVICE CHEYENNE WY
1000 AM MDT TUE APR 22 2014

NOTE:  "FAIR" INDICATES FEW OR NO CLOUDS BELOW 12,000 FEET
WITH NO SIGNIFICANT WEATHER AND/OR OBSTRUCTIONS TO VISIBILITY.

WYZ001-221700-
YELLOWSTONE NATIONAL PARK

CITY           SKY/WX    TMP DP  RH WIND       PRES   REMARKS
LK YELLOWSTONE   N/A     40  35  83 CALM      29.92F
W YELLOWSTONE  NOT AVBL

$$
WYZ002>013-054>058-071-098>099-221700-
NORTHERN WYOMING

CITY           SKY/WX    TMP DP  RH WIND       PRES   REMARKS
JACKSON        MOSUNNY   43  39  87 CALM      29.88F
CODY           CLOUDY    57  37  47 SW13      29.79F
GREYBULL       CLOUDY    56  32  40 CALM      29.78F
WORLAND        CLOUDY    51  33  50 SW5       29.80F
SHERIDAN         N/A     50  32  50 SE12        N/A
BUFFALO        CLOUDY    57  30  35 N6        29.80F
GILLETTE       CLOUDY    53  36  52 S12       29.82F
HULETT         CLOUDY    61  34  36 NE3       29.83
NEWCASTLE      FAIR      54  34  47 S8        29.86

$$
WYZ014>020-022>026-101>103-221700-
CENTRAL WYOMING

CITY           SKY/WX    TMP DP  RH WIND       PRES   REMARKS
BIG PINEY      CLOUDY    54  30  40 E8        29.90F
PINEDALE       PTSUNNY   52  34  50 E5        29.92F
DUBOIS         FAIR      50  32  50 NW3       29.87F
LANDER         PTSUNNY   52  30  43 CALM      29.84F
RIVERTON       CLOUDY    54  25  32 N8        29.83F
CASPER         PTSUNNY   61  34  36 SW17G23   29.84F
DOUGLAS        CLOUDY    51  38  60 S6        29.87F

$$
WYZ021-027>030-104>119-221700-
SOUTHERN WYOMING

CITY           SKY/WX    TMP DP  RH WIND       PRES   REMARKS
EVANSTON         N/A     60  30  32 S18G30    29.86F
KEMMERER       CLOUDY    55  32  41 S8        29.89F
FORT BRIDGER   FAIR      58  32  37 SE7       29.90F
ROCK SPRINGS   CLOUDY    60  29  30 CALM      29.90F
DIXON          PTSUNNY   64  29  27 S21       29.97F
RAWLINS        PTSUNNY   63  26  24 S25G33    29.92F
SARATOGA       FAIR      64  28  25 S16G29    29.97F
LARAMIE        CLOUDY    56  30  37 S9        30.01F
CHEYENNE       CLOUDY    57  36  45 S8        29.98F
TORRINGTON     CLOUDY    58  39  49 SE12      29.89F
PINE BLUFFS    FAIR      59  41  51 S14       29.97F

$$



USA.gov is the U.S. government's official web portal to all federal, state and local government web resources and services.